GW0408 Weather Reports


time (UTC)temp
F
wind
direction
speed
knots
gust
knots
rain 1hr
in
rain 24hr
in
rain mn
in
humidity
%
barometer
mb
20260504050438 47 200 2.6 3.5 0.00 0.02 0.00 90 1015.0
20260504050201 46 202 2.6 3.5 0.00 0.02 0.00 92 1015.0
20260504045438 45 212 2.6 3.5 0.00 0.02 0.00 94 1014.9
20260504044938 45 211 1.7 3.5 0.00 0.02 0.00 95 1015.0
20260504044930 44 212 1.7 2.6 0.00 0.02 0.00 98 1014.9
20260504043939 44 219 1.7 2.6 0.00 0.02 0.00 99 1014.9
20260504043431 44 206 0.9 1.7 0.00 0.02 0.00 99 1014.9
20260504042932 44 0 0.0 0.0 0.00 0.02 0.00 100 1014.9
20260504042432 44 0 0.0 0.0 0.00 0.02 0.00 99 1014.9
20260504041932 44 0 0.0 0.0 0.00 0.02 0.00 98 1014.9
20260504041432 44 0 0.0 0.0 0.00 0.02 0.00 98 1014.9
20260504040932 44 0 0.0 0.0 0.00 0.02 0.00 98 1014.8
20260504040432 44 0 0.0 1.7 0.00 0.02 0.00 99 1014.8
20260504040154 44 0 0.0 1.7 0.00 0.02 0.02 99 1014.8
20260504035432 44 201 0.0 1.7 0.00 0.02 0.02 99 1014.8
20260504035152 44 0 0.0 1.7 0.00 0.02 0.02 99 1014.8
20260504034432 44 0 0.9 1.7 0.00 0.02 0.02 98 1014.8
20260504033928 44 201 0.9 1.7 0.00 0.02 0.02 98 1014.6
20260504033428 44 202 0.9 1.7 0.00 0.02 0.02 98 1014.6
20260504032929 44 0 0.9 1.7 0.00 0.02 0.02 98 1014.6
20260504032646 44 201 0.0 1.7 0.00 0.02 0.02 98 1014.6
20260504031929 44 194 0.0 1.7 0.00 0.02 0.02 98 1014.6
20260504031429 44 0 0.0 1.7 0.00 0.02 0.02 97 1014.6
20260504030929 44 0 0.0 1.7 0.00 0.02 0.02 96 1014.6
20260504030428 44 0 0.0 1.7 0.00 0.02 0.02 96 1014.6
20260504025929 44 0 0.9 1.7 0.00 0.02 0.02 96 1014.6
20260504025428 44 0 0.0 1.7 0.00 0.02 0.02 95 1014.6
20260504024929 44 0 0.0 0.0 0.00 0.02 0.02 94 1014.6
20260504024653 45 0 0.0 1.7 0.00 0.02 0.02 94 1014.5
20260504023930 45 0 0.9 1.7 0.00 0.02 0.02 94 1014.5
20260504023426 45 199 0.9 1.7 0.00 0.02 0.02 93 1014.6
20260504023146 45 196 0.0 1.7 0.00 0.02 0.02 93 1014.6
20260504022426 45 0 0.0 1.7 0.00 0.02 0.02 92 1014.6
20260504021926 46 0 0.0 1.7 0.00 0.02 0.02 92 1014.5
20260504021427 46 0 0.0 1.7 0.00 0.02 0.02 91 1014.5
20260504020925 46 204 0.0 1.7 0.00 0.02 0.02 90 1014.5
20260504020424 46 0 0.9 1.7 0.00 0.02 0.02 90 1014.5
20260504015925 46 206 0.0 1.7 0.00 0.02 0.02 90 1014.4
20260504015424 46 0 0.0 0.0 0.00 0.02 0.02 89 1014.3
20260504014924 47 0 0.0 1.7 0.00 0.02 0.02 89 1014.3
20260504014642 47 0 0.9 1.7 0.00 0.02 0.02 88 1014.2
20260504014150 47 0 0.9 1.7 0.00 0.02 0.02 86 1014.2
20260504013647 47 213 1.7 1.7 0.00 0.02 0.02 83 1014.2
20260504013130 48 219 1.7 1.7 0.00 0.02 0.02 83 1014.2
20260504013014 47 216 1.7 1.7 0.00 0.02 0.02 82 1014.1
20260504011922 48 220 1.7 2.6 0.00 0.02 0.02 82 1014.2
20260504011423 49 220 1.7 2.6 0.00 0.02 0.02 82 1014.2
20260504010922 49 217 1.7 2.6 0.00 0.02 0.02 78 1014.2
20260504010423 49 218 1.7 2.6 0.00 0.02 0.02 76 1014.2
20260504005923 49 212 1.7 2.6 0.00 0.02 0.02 74 1014.2
20260504005644 50 217 1.7 2.6 0.00 0.02 0.02 73 1014.1
20260504004921 50 207 1.7 2.6 0.00 0.02 0.02 73 1014.1
20260504004416 51 193 1.7 2.6 0.00 0.02 0.02 71 1014.2
20260504003916 51 208 1.7 2.6 0.00 0.02 0.02 73 1014.3
20260504003417 52 190 1.7 2.6 0.00 0.02 0.02 69 1014.3
20260504002917 52 191 1.7 1.7 0.00 0.02 0.02 66 1014.3
20260504002417 53 199 1.7 1.7 0.00 0.02 0.02 63 1014.3
20260504001917 53 202 0.9 1.7 0.00 0.02 0.02 63 1014.2
20260504001417 54 191 0.0 1.7 0.00 0.02 0.02 61 1014.1
20260504000917 55 0 0.0 0.9 0.00 0.02 0.02 59 1014.2
20260504000417 56 0 0.0 2.6 0.00 0.02 0.02 58 1014.2
20260503235917 57 36 0.0 2.6 0.00 0.02 0.02 56 1014.1
20260503235415 58 41 0.0 1.7 0.00 0.02 0.02 55 1014.1
20260503234914 58 0 0.0 1.7 0.00 0.02 0.02 53 1014.1
20260503234412 60 344 0.9 1.7 0.00 0.02 0.02 51 1014.1
20260503233911 61 240 1.7 2.6 0.00 0.02 0.02 49 1014.1
20260503233411 62 222 1.7 2.6 0.00 0.02 0.02 45 1014.1
20260503232911 63 195 0.9 1.7 0.00 0.02 0.02 43 1014.1
20260503232631 65 193 0.0 1.7 0.00 0.02 0.02 41 1014.1
20260503231912 66 0 0.0 3.5 0.00 0.02 0.02 38 1014.1
20260503231412 65 0 0.9 3.5 0.00 0.02 0.02 38 1014.0
20260503230912 65 0 0.9 3.5 0.00 0.02 0.02 37 1014.0
20260503230412 65 186 0.9 3.5 0.00 0.02 0.02 35 1014.0
20260503230132 64 313 0.9 4.3 0.00 0.02 0.02 36 1014.1
20260503225412 64 296 1.7 4.3 0.00 0.02 0.02 34 1014.1
20260503225132 64 342 1.7 5.2 0.00 0.02 0.02 35 1014.1
20260503224630 64 269 1.7 5.2 0.00 0.02 0.02 35 1014.2
20260503223909 64 153 2.6 7.0 0.00 0.02 0.02 35 1014.3
20260503223407 64 152 2.6 7.0 0.00 0.02 0.02 35 1014.2
20260503222907 64 260 1.7 6.1 0.00 0.02 0.02 35 1014.2
20260503222407 65 244 1.7 6.1 0.00 0.02 0.02 36 1014.2
20260503221907 65 317 1.7 6.1 0.00 0.02 0.02 35 1014.3
20260503221407 64 85 0.9 5.2 0.00 0.02 0.02 35 1014.3
20260503220907 64 324 2.6 7.8 0.00 0.02 0.02 35 1014.3
20260503220407 64 9 2.6 7.8 0.00 0.02 0.02 36 1014.4
20260503215907 64 0 2.6 7.8 0.00 0.02 0.02 36 1014.3
20260503215405 64 322 1.7 7.8 0.00 0.02 0.02 36 1014.3
20260503214904 64 5 1.7 7.0 0.00 0.02 0.02 37 1014.2
20260503214405 63 208 2.6 7.0 0.00 0.02 0.02 36 1014.2
20260503213905 64 197 2.6 7.8 0.00 0.02 0.02 36 1014.2
20260503213402 63 114 2.6 7.8 0.00 0.02 0.02 37 1014.3
20260503212902 63 269 3.5 7.0 0.00 0.02 0.02 37 1014.2
20260503212402 63 138 2.6 7.0 0.00 0.02 0.02 39 1014.2
20260503211901 63 200 2.6 7.0 0.00 0.02 0.02 38 1014.2
20260503211625 63 196 2.6 7.0 0.00 0.02 0.02 37 1014.2
20260503210902 63 299 2.6 7.8 0.00 0.02 0.02 38 1014.2
20260503210402 62 187 3.5 7.8 0.00 0.02 0.02 39 1014.2
20260503205902 62 171 3.5 7.8 0.00 0.02 0.02 38 1014.2
20260503205403 62 147 3.5 7.0 0.00 0.02 0.02 38 1014.2
20260503204900 62 277 3.5 8.7 0.00 0.02 0.02 37 1014.3
20260503204359 63 208 2.6 8.7 0.00 0.02 0.02 37 1014.3
20260503204127 62 272 1.7 5.2 0.00 0.02 0.02 38 1014.1
20260503203400 62 151 2.6 8.7 0.00 0.02 0.02 36 1014.3
20260503202859 62 0 2.6 8.7 0.00 0.02 0.02 38 1014.3
20260503202359 62 247 2.6 8.7 0.00 0.02 0.02 37 1014.2
20260503201900 62 189 2.6 8.7 0.00 0.02 0.02 39 1014.2
20260503201400 62 213 2.6 7.8 0.00 0.02 0.02 38 1014.3
20260503200900 62 243 1.7 6.1 0.00 0.02 0.02 38 1014.3
20260503200627 61 241 3.5 8.7 0.00 0.02 0.02 38 1014.5
20260503195858 61 223 3.5 9.6 0.00 0.02 0.02 38 1014.6
20260503195355 61 233 3.5 9.6 0.00 0.01 0.01 39 1014.7
20260503194856 62 231 3.5 9.6 0.00 0.01 0.01 38 1014.7
20260503194355 61 256 3.5 8.7 0.00 0.01 0.01 39 1014.8
20260503193855 61 207 3.5 9.6 0.00 0.01 0.01 40 1014.8
20260503193616 61 92 3.5 9.6 0.00 0.01 0.01 40 1014.9
20260503192856 61 234 3.5 8.7 0.00 0.01 0.01 40 1015.0
20260503192356 61 253 2.6 7.8 0.00 0.01 0.01 39 1015.0
20260503191855 61 358 1.7 7.0 0.00 0.01 0.01 42 1015.0
20260503191355 60 262 2.6 7.0 0.00 0.01 0.01 39 1015.1
20260503191116 60 235 3.5 7.0 0.00 0.01 0.01 39 1015.2
20260503190615 61 314 2.6 7.0 0.00 0.01 0.01 38 1015.3
20260503185856 60 223 3.5 11.3 0.00 0.01 0.01 39 1015.3
20260503185352 60 184 3.5 11.3 0.00 0.01 0.01 38 1015.4
20260503184852 60 251 2.6 7.8 0.00 0.01 0.01 38 1015.5
20260503184353 60 85 2.6 7.8 0.00 0.01 0.01 39 1015.5
20260503183853 60 254 2.6 11.3 0.00 0.01 0.01 37 1015.5
20260503183350 60 302 2.6 11.3 0.00 0.01 0.01 38 1015.5
20260503183336 60 100 2.6 7.0 0.00 0.01 0.01 37 1015.7
20260503182350 60 22 2.6 7.8 0.00 0.01 0.01 38 1015.7
20260503181851 59 299 2.6 7.8 0.00 0.01 0.01 37 1015.6
20260503181351 59 321 2.6 8.7 0.00 0.01 0.01 38 1015.7
20260503180850 58 153 3.5 10.4 0.00 0.01 0.01 39 1015.8
20260503180348 58 312 4.3 11.3 0.00 0.01 0.01 39 1015.9
20260503175848 58 250 4.3 11.3 0.00 0.01 0.01 39 1015.9
20260503175348 59 224 3.5 8.7 0.00 0.01 0.01 40 1015.8
20260503174847 58 242 2.6 7.8 0.00 0.01 0.01 39 1015.8
20260503174347 58 242 3.5 7.8 0.00 0.01 0.01 39 1015.9
20260503173847 58 244 3.5 7.8 0.00 0.01 0.01 41 1016.0
20260503173347 58 291 3.5 7.8 0.00 0.01 0.01 40 1016.0
20260503173107 58 172 2.6 7.8 0.00 0.01 0.01 40 1016.0
20260503172349 58 225 2.6 9.6 0.00 0.01 0.01 40 1016.0
20260503171849 57 215 3.5 9.6 0.00 0.01 0.01 40 1016.1
20260503171349 57 319 2.6 7.0 0.00 0.01 0.01 42 1016.3
20260503170849 57 303 2.6 8.7 0.00 0.01 0.01 40 1016.3
20260503170346 56 227 3.5 11.3 0.00 0.01 0.01 40 1016.5
20260503150845 53 272 2.6 13.0 0.00 0.00 0.00 47 1017.0
20260503150341 53 352 3.5 13.0 0.00 0.00 0.00 46 1017.1
20260503150318 53 50 3.5 11.3 0.00 0.00 0.00 48 1017.0
20260503131334 50 4 3.5 9.6 0.00 0.00 0.00 56 1016.5
20260503130831 50 247 3.5 9.6 0.00 0.00 0.00 56 1016.3
20260503130332 50 261 2.6 7.0 0.00 0.00 0.00 58 1016.3
20260503110757 47 224 2.6 7.8 0.00 0.00 0.00 67 1014.7
20260503110257 47 357 1.7 5.2 0.00 0.00 0.00 67 1014.6
20260503100256 49 213 1.7 5.2 0.00 0.00 0.00 63 1013.5
20260503090218 49 207 2.6 6.1 0.00 0.00 0.00 64 1012.8
20260503081422 49 276 1.7 3.5 0.00 0.00 0.00 75 1011.8
20260503080907 49 210 1.7 2.6 0.00 0.00 0.00 76 1011.8
20260503080131 49 225 1.7 2.6 0.00 0.00 0.00 75 1011.7
20260503072615 49 221 1.7 2.6 0.00 0.00 0.00 79 1011.4
20260503072559 49 198 1.7 2.6 0.00 0.00 0.00 79 1011.3
20260503071616 49 209 1.7 3.5 0.00 0.00 0.00 79 1011.3
20260503071555 49 184 1.7 3.5 0.00 0.00 0.00 80 1011.2
20260503070600 49 223 1.7 2.6 0.00 0.00 0.00 81 1011.1
20260503060322 49 206 1.7 2.6 0.00 0.00 0.00 93 1010.8
20260503055100 49 215 1.7 4.3 0.00 0.00 0.00 93 1010.8
20260503054600 49 252 1.7 4.3 0.00 0.00 0.00 92 1010.8
20260503054047 49 225 1.7 3.5 0.00 0.00 0.00 93 1010.8
20260503053546 49 247 1.7 3.5 0.00 0.00 0.00 93 1010.8
20260503053048 48 218 1.7 2.6 0.00 0.00 0.00 93 1010.7
20260503052535 48 218 1.7 2.6 0.00 0.00 0.00 94 1010.7
20260503052236 48 219 1.7 2.6 0.00 0.00 0.00 96 1010.7
20260503052118 48 223 1.7 2.6 0.00 0.00 0.00 95 1010.7